Find Kosmos-875

NORAD ID: 9592 Int'l Des: 1976-118 Owner: GUKOSR Country: SU operational
LEOCIRCULAR

Live-Position

3D-Globus wird geladen...

Über Kosmos-875

Beschreibung wird geladen...

Nächste Überflüge

Passes for default location (London). Set your location on the main map for personalized predictions.

Höhenverlauf

Loading altitude history...

Zweizeiliger Elementsatz

1 9592U 76118E 26106.85021618 -.00000030 00000-0 -88998-4 0 9995
2 9592 74.0291 254.3184 0017731 187.3913 327.1614 12.53518576258415
Epoch: 16. Apr. 2026 • Age: 9 hours

Aktueller Status

Höhe 1466.8 km
Geschwindigkeit 7.13 km/s
Subsatellitenpunkt 45.35°N, 15.99°W
Typ other

Most Searched